Location: Newark
(44.2003°N, 3.2583°E)
Time: 00:16:10
(UTC+00:00)

Courier 1B Rocket - Pass Details

Date: 24 October 2019
Orbit: 920 x 1202 km, 28.2° (Epoch: 19 November)

Event Time Altitude Azimuth Distance (km) Brightness Sun altitude
Exits shadow 04:47:13 10° 224° (SW) 2,573 6.8 -15.9°
Maximum altitude 04:50:32 15° 191° (S) 2,236 6.8 -15.4°
Drops below altitude 10° 04:54:02 10° 156° (SSE) 2,622 7.6 -14.7°
Sets 04:57:49 0° 135° (SE) 3,596 8.8 -14.1°
